Vorticity
21 37 35 40 35 25 16 13 14 12 9 7 9 7 10 15 29 23 24 14 -20 8 27 28 -3 15 25 12 13 4 7 4 -1 -4 -4 4 7 10 13 10 9 9 12 2 9 10 -10 16 14 7 12 8 5 4
30 18 13 45 45 39 39 30 24 25 12 13 8 8 11 10 10 11 25 -6 -9 -45 28 7 17 12 13 15 9 14 10 1 8 3 -0 2 9 12 9 7 5 4 8 12 11 13 10 8 4 6 6 5 7 8
31 41 13 10 15 21 27 32 24 30 39 21 14 12 14 12 13 9 10 16 9 7 -2 29 21 0 15 7 -5 8 7 18 19 13 11 1 6 21 4 10 16 9 12 13 15 14 11 12 15 9 12 13 11 11
32 20 10 17 8 10 21 18 22 21 13 27 27 25 17 13 13 12 14 11 11 8 10 12 12 11 3 11 33 -1 30 3 19 14 22 26 -0 -1 15 12 19 17 13 14 17 5 3 15 21 23 25 27 16 17
14 36 22 8 12 6 9 11 10 15 20 21 26 24 17 20 20 15 12 10 12 9 7 10 11 8 6 9 10 7 21 24 -3 6 1 17 31 36 19 9 10 16 13 6 20 20 15 9 14 11 5 4 8 12
12 15 17 41 42 28 3 11 6 9 28 18 23 27 27 26 18 14 15 15 12 12 13 12 13 12 13 13 16 18 13 15 10 13 12 6 8 -4 -17 7 14 25 -26 21 13 19 18 10 19 -4 -0 -2 -4 -13
7 9 9 11 11 12 23 52 50 21 12 9 9 13 15 17 22 24 19 16 15 16 15 17 14 11 14 15 14 15 13 14 20 18 12 11 8 10 13 20 19 -14 -6 15 11 -5 -6 -0 -18 -17 -9 -12 13 13
32 12 8 8 12 7 9 10 10 9 17 22 33 29 27 18 15 13 14 14 15 13 11 14 17 12 12 15 16 13 12 10 11 14 16 14 17 14 11 10 13 19 24 25 21 12 10 -12 -4 4 20 29 30 46
34 53 49 24 7 13 8 6 5 2 7 10 11 7 10 19 22 23 22 18 17 14 18 18 14 14 12 11 12 18 17 22 16 18 20 21 16 12 13 12 12 13 15 16 19 17 21 27 27 20 12 10 23 5
13 16 25 39 40 31 39 43 30 27 26 14 10 6 4 3 5 7 6 7 8 8 10 9 13 12 12 12 16 13 11 8 8 5 5 6 14 13 18 20 15 17 17 21 25 26 28 29 31 34 31 21 20 3
9 10 10 12 14 18 22 22 20 20 22 23 28 35 39 33 23 18 14 16 11 12 11 8 8 7 9 8 9 11 13 16 15 13 9 6 6 8 13 17 17 17 16 16 17 21 20 13 16 29 21 38 51 39
8 6 7 9 11 11 11 12 11 12 14 17 16 18 19 15 16 19 18 14 16 16 16 20 24 25 26 24 23 20 16 12 8 9 11 12 11 11 13 11 18 30 29 30 29 30 29 28 20 18 13 13 -2 10
11 8 8 6 7 7 8 11 11 11 10 9 11 11 11 10 13 15 14 11 14 12 11 9 7 6 5 6 4 8 11 5 4 9 12 13 17 18 22 24 15 15 16 10 5 12 18 7 21 13 22 27 10 9
24 22 15 10 6 8 9 7 7 9 11 12 12 12 12 9 11 16 17 22 21 25 26 27 30 33 30 22 14 5 4 2 7 5 5 3 3 6 5 0 6 5 10 9 7 4 4 3 7 8 11 12 16 21
11 13 16 18 15 13 11 10 12 11 11 9 10 10 12 8 9 9 11 17 16 23 23 27 33 33 31 31 32 39 42 37 28 21 18 17 17 16 15 14 12 9 5 4 6 5 6 6 6 8 7 6 7 8
7 8 9 10 15 16 15 15 10 10 4 11 8 7 7 8 9 10 10 14 17 20 21 20 20 22 20 20 25 26 27 24 22 20 18 14 11 10 12 14 16 16 15 15 13 7 5 6 5 2 2 5 5 4
6 7 6 4 4 7 11 18 20 20 15 14 10 9 5 6 8 10 12 14 19 22 22 26 23 25 18 12 13 13 15 18 20 21 22 23 25 27 27 23 14 6 9 12 13 14 13 11 11 12 12 10 6 6
5 5 5 7 6 7 7 10 10 16 17 16 11 9 7 5 8 11 12 17 22 23 21 21 19 17 15 16 15 12 13 14 14 12 12 15 19 22 25 27 31 30 25 19 8 10 11 11 12 12 10 10 10 11
8 7 6 5 6 7 7 5 7 9 13 15 13 9 7 6 9 10 13 19 21 19 16 15 15 14 12 9 11 10 12 13 15 15 16 14 12 13 14 20 24 24 23 30 35 27 13 5 7 10 12 14 15 17
9 9 8 7 5 5 7 8 7 8 11 12 14 9 7 7 9 12 15 22 20 16 12 10 10 8 10 9 9 10 12 12 12 14 15 14 14 14 13 15 16 21 23 21 23 24 28 34 31 14 4 9 13 13
7 8 8 10 6 5 7 10 6 9 10 15 14 9 5 8 10 14 18 24 19 15 11 10 10 8 10 11 12 11 10 11 10 13 18 17 16 16 15 14 15 16 20 22 19 20 23 23 26 29 29 20 10 14
6 9 9 7 8 7 8 9 9 8 13 14 16 9 5 11 14 16 20 20 15 10 8 9 10 11 12 10 11 11 13 15 16 17 17 18 18 19 19 18 16 15 16 19 20 19 19 20 20 23 27 25 17 12
7 7 8 7 8 8 5 11 10 9 11 13 13 7 7 16 16 21 20 11 9 7 9 10 11 10 10 14 16 17 16 17 17 17 16 16 17 19 19 19 19 17 17 18 14 18 18 20 19 18 23 28 25 13
7 8 7 7 8 8 11 10 11 11 12 15 11 7 11 14 18 22 12 6 5 9 9 10 11 18 23 22 21 22 24 25 25 25 22 19 18 14 14 15 16 18 19 16 18 12 14 16 19 18 18 23 27 24
7 9 8 6 7 12 10 13 11 13 13 14 6 9 12 14 19 19 8 6 8 10 11 14 21 20 17 22 23 25 26 27 29 31 30 27 26 26 21 14 12 15 18 15 15 15 16 12 14 18 17 18 22 25
8 7 7 6 8 14 12 12 12 13 15 10 7 9 13 15 20 12 7 7 11 9 15 20 16 17 21 22 23 24 30 32 33 35 36 35 34 33 29 24 18 14 14 15 14 12 13 12 15 15 18 17 19 22
7 8 7 8 12 13 14 11 13 15 15 6 7 11 14 20 16 7 6 11 9 15 19 16 16 18 21 24 23 25 30 34 37 42 44 42 40 38 34 28 22 20 17 12 12 11 11 13 13 16 16 18 16 18
9 8 6 7 14 13 11 12 15 17 9 3 10 13 20 20 11 5 10 11 12 20 18 17 19 15 21 23 23 27 31 34 36 34 39 42 38 38 37 31 25 23 25 16 11 11 11 12 14 17 18 19 17 18
9 8 10 10 14 13 12 15 16 13 3 7 11 15 19 19 6 8 12 9 17 20 17 22 16 20 17 19 24 26 30 32 35 38 35 36 35 37 39 32 32 30 26 22 17 14 14 16 19 19 17 16 15 18
12 8 10 14 14 11 12 16 14 8 6 8 13 19 23 14 4 11 13 12 20 18 17 20 16 20 21 20 20 23 24 26 23 28 39 41 40 42 43 38 37 32 24 22 22 20 18 15 15 16 16 16 16 17
8 9 15 13 10 10 12 13 14 8 7 10 14 22 22 9 5 14 12 13 19 15 18 19 17 18 20 22 22 20 22 23 22 21 35 32 35 40 40 38 34 28 26 24 19 18 18 19 19 17 17 15 16 16
11 11 12 11 10 9 13 14 14 7 8 11 16 24 18 7 6 15 13 15 19 13 17 20 17 16 17 18 18 19 19 20 23 27 29 19 25 27 30 31 28 24 21 21 22 21 19 18 17 16 15 15 16 15
8 7 10 12 8 10 14 16 11 6 9 11 19 24 18 5 7 15 12 13 20 13 12 21 20 14 15 16 17 18 19 19 19 20 21 21 23 22 20 20 20 20 20 19 19 19 17 16 15 14 15 15 16 15
Height
5319 5322 5328 5334 5342 5351 5362 5371 5377 5387 5395 5402 5410 5419 5427 5434 5438 5444 5448 5453 5456 5458 5463 5469 5473 5479 5483 5486 5489 5494 5497 5497 5497 5497 5497 5498 5496 5501 5501 5514 5515 5514 5512 5514 5513 5504 5501 5536 5530 5531 5536 5528 5529 5533
5312 5314 5318 5323 5328 5334 5343 5352 5360 5366 5375 5384 5393 5400 5408 5415 5420 5424 5432 5436 5437 5438 5445 5450 5454 5461 5464 5467 5471 5471 5477 5479 5481 5479 5478 5479 5479 5480 5486 5487 5499 5489 5494 5496 5493 5490 5496 5503 5505 5507 5512 5509 5508 5509
5308 5309 5314 5318 5323 5328 5332 5338 5345 5350 5355 5364 5373 5382 5389 5396 5400 5405 5412 5418 5420 5419 5424 5430 5440 5441 5445 5451 5451 5453 5457 5461 5461 5461 5461 5460 5459 5460 5463 5466 5475 5474 5474 5470 5473 5472 5473 5479 5484 5486 5487 5489 5488 5488
5310 5311 5313 5316 5319 5323 5327 5331 5336 5340 5343 5348 5357 5364 5371 5377 5383 5388 5394 5397 5401 5402 5403 5410 5418 5424 5427 5428 5430 5435 5438 5442 5444 5444 5440 5439 5442 5441 5443 5444 5445 5449 5451 5453 5451 5453 5453 5457 5460 5461 5462 5463 5464 5465
5313 5312 5312 5314 5316 5320 5323 5326 5330 5333 5336 5340 5344 5349 5356 5362 5367 5371 5377 5381 5384 5388 5386 5392 5398 5401 5406 5407 5408 5412 5415 5417 5421 5421 5420 5420 5420 5422 5423 5423 5425 5429 5430 5429 5430 5433 5431 5437 5439 5439 5441 5442 5442 5441
5316 5314 5313 5313 5315 5317 5319 5322 5326 5329 5331 5334 5337 5341 5346 5349 5351 5357 5362 5366 5370 5371 5370 5375 5379 5382 5384 5386 5387 5389 5391 5394 5394 5395 5397 5398 5402 5402 5396 5400 5402 5407 5407 5408 5409 5411 5410 5410 5413 5413 5416 5418 5419 5419
5318 5316 5316 5315 5315 5316 5316 5318 5321 5324 5327 5329 5331 5334 5337 5339 5342 5346 5350 5353 5354 5355 5356 5357 5358 5365 5366 5367 5368 5368 5369 5369 5368 5368 5368 5375 5381 5373 5370 5373 5376 5379 5381 5384 5387 5388 5387 5389 5388 5389 5388 5390 5392 5393
5318 5317 5316 5316 5317 5317 5318 5319 5320 5322 5323 5324 5326 5327 5329 5331 5333 5336 5338 5341 5341 5343 5343 5342 5343 5346 5349 5349 5350 5350 5350 5349 5347 5347 5348 5351 5351 5349 5343 5348 5350 5354 5357 5359 5359 5361 5363 5363 5362 5364 5363 5362 5362 5365
5321 5317 5316 5317 5318 5318 5319 5319 5320 5321 5321 5323 5323 5323 5324 5325 5326 5326 5328 5330 5331 5333 5330 5327 5330 5331 5330 5331 5332 5332 5330 5329 5326 5326 5329 5329 5327 5323 5326 5329 5330 5330 5332 5333 5333 5334 5334 5336 5337 5338 5340 5343 5342 5341
5333 5328 5324 5321 5319 5319 5318 5318 5318 5318 5318 5319 5320 5320 5320 5320 5320 5321 5320 5319 5320 5319 5317 5314 5314 5313 5314 5313 5312 5315 5311 5311 5307 5310 5309 5306 5305 5306 5306 5306 5308 5307 5305 5307 5309 5308 5308 5311 5311 5312 5315 5317 5317 5319
5343 5339 5335 5331 5328 5325 5323 5321 5320 5319 5318 5317 5316 5315 5315 5315 5315 5313 5311 5311 5308 5306 5305 5302 5300 5299 5295 5295 5295 5293 5289 5289 5285 5289 5289 5284 5285 5287 5288 5288 5288 5288 5287 5285 5285 5285 5286 5288 5288 5290 5293 5295 5294 5298
5354 5349 5344 5340 5337 5334 5331 5328 5325 5323 5321 5319 5317 5315 5313 5311 5309 5307 5304 5301 5298 5294 5290 5288 5285 5281 5280 5277 5276 5274 5272 5269 5267 5267 5267 5264 5266 5269 5269 5268 5268 5268 5267 5266 5265 5265 5266 5268 5270 5272 5274 5276 5279 5281
5362 5358 5352 5347 5344 5340 5336 5333 5330 5327 5324 5321 5318 5315 5312 5310 5305 5300 5296 5290 5284 5279 5275 5271 5268 5264 5262 5261 5258 5256 5253 5252 5251 5247 5245 5247 5248 5249 5251 5251 5251 5251 5251 5251 5252 5252 5253 5254 5255 5257 5258 5260 5262 5264
5369 5364 5359 5355 5350 5345 5341 5337 5333 5330 5326 5322 5318 5314 5310 5305 5300 5294 5288 5282 5275 5267 5260 5254 5249 5244 5242 5240 5239 5235 5234 5233 5229 5229 5229 5230 5231 5232 5232 5234 5235 5235 5235 5236 5237 5238 5239 5241 5242 5243 5244 5244 5245 5247
5377 5371 5365 5360 5355 5349 5344 5339 5335 5331 5327 5322 5318 5312 5307 5302 5295 5288 5280 5272 5263 5254 5246 5239 5234 5229 5225 5222 5218 5216 5213 5211 5211 5211 5211 5211 5211 5211 5212 5213 5214 5215 5216 5217 5219 5220 5222 5224 5226 5227 5228 5230 5232 5233
5383 5377 5372 5366 5360 5354 5348 5342 5335 5329 5327 5322 5316 5310 5303 5297 5289 5280 5271 5261 5251 5243 5234 5227 5222 5217 5215 5211 5208 5204 5201 5198 5196 5194 5193 5191 5190 5190 5191 5191 5191 5192 5194 5195 5198 5200 5202 5204 5207 5208 5210 5213 5215 5217
5390 5383 5376 5369 5362 5355 5347 5341 5337 5334 5326 5319 5312 5306 5299 5292 5284 5274 5264 5254 5244 5235 5228 5221 5215 5210 5207 5203 5199 5195 5191 5188 5185 5181 5177 5173 5171 5171 5170 5169 5169 5170 5171 5173 5175 5177 5180 5183 5186 5189 5192 5195 5198 5200
5392 5386 5379 5371 5364 5357 5351 5346 5339 5331 5324 5317 5309 5301 5293 5286 5278 5268 5257 5247 5238 5230 5222 5216 5210 5204 5200 5196 5192 5187 5182 5178 5172 5168 5163 5158 5155 5152 5150 5149 5148 5147 5148 5150 5152 5156 5159 5162 5166 5169 5172 5177 5180 5181
5393 5386 5379 5371 5364 5357 5351 5344 5336 5327 5319 5312 5304 5297 5289 5280 5269 5260 5250 5241 5233 5225 5217 5210 5205 5200 5194 5189 5184 5178 5172 5166 5162 5156 5149 5143 5139 5136 5133 5130 5129 5128 5128 5128 5129 5132 5136 5141 5145 5149 5153 5159 5163 5165
5394 5386 5379 5372 5364 5356 5349 5342 5334 5326 5317 5309 5300 5291 5282 5274 5264 5255 5245 5236 5227 5220 5213 5206 5199 5193 5188 5181 5174 5168 5160 5153 5147 5143 5137 5130 5123 5120 5115 5113 5112 5111 5110 5110 5111 5112 5115 5119 5123 5129 5135 5140 5146 5148
5393 5386 5379 5372 5364 5356 5348 5340 5332 5322 5314 5306 5297 5288 5280 5270 5261 5250 5240 5232 5222 5215 5208 5201 5193 5184 5176 5167 5159 5152 5145 5137 5129 5123 5118 5116 5109 5104 5100 5096 5095 5094 5094 5095 5096 5097 5099 5102 5105 5109 5115 5122 5127 5132
5392 5386 5379 5371 5363 5353 5345 5337 5329 5321 5312 5302 5294 5285 5276 5266 5255 5244 5235 5225 5218 5210 5201 5192 5183 5175 5165 5155 5145 5134 5125 5118 5110 5103 5095 5091 5090 5087 5083 5081 5080 5079 5078 5080 5082 5084 5085 5089 5092 5095 5100 5105 5112 5118
5390 5385 5378 5370 5360 5350 5344 5335 5327 5317 5308 5299 5291 5282 5272 5261 5249 5239 5229 5218 5209 5200 5191 5181 5171 5159 5147 5137 5126 5115 5103 5095 5088 5081 5074 5070 5068 5066 5065 5063 5064 5064 5065 5066 5070 5072 5074 5077 5080 5083 5087 5092 5098 5105
5389 5382 5375 5366 5357 5348 5341 5333 5323 5314 5305 5296 5287 5278 5268 5256 5245 5232 5220 5210 5200 5190 5179 5169 5158 5147 5137 5124 5110 5098 5085 5074 5065 5058 5050 5046 5046 5045 5045 5045 5047 5049 5052 5054 5057 5061 5065 5067 5070 5074 5077 5082 5086 5093
5388 5381 5374 5364 5354 5347 5340 5331 5321 5312 5302 5293 5285 5274 5261 5249 5236 5224 5212 5203 5193 5182 5170 5157 5145 5130 5114 5102 5089 5076 5061 5049 5040 5033 5025 5020 5020 5022 5023 5025 5029 5034 5039 5042 5047 5051 5055 5059 5062 5065 5069 5073 5078 5083
5385 5378 5370 5361 5354 5347 5337 5327 5318 5310 5301 5291 5279 5266 5254 5242 5228 5217 5208 5199 5187 5173 5159 5143 5127 5114 5100 5084 5068 5055 5042 5029 5017 5008 5000 4996 4995 4998 5002 5004 5009 5018 5026 5031 5037 5041 5046 5050 5054 5058 5062 5066 5071 5076
5383 5374 5368 5360 5353 5344 5335 5327 5317 5307 5297 5286 5275 5263 5250 5237 5224 5215 5205 5193 5180 5166 5149 5133 5118 5103 5089 5075 5058 5040 5024 5010 4998 4989 4982 4976 4974 4976 4980 4984 4990 5000 5012 5020 5026 5032 5038 5044 5048 5052 5057 5061 5065 5070
5381 5374 5367 5360 5351 5342 5334 5324 5314 5303 5293 5283 5271 5258 5246 5234 5226 5215 5203 5189 5176 5161 5146 5131 5114 5098 5083 5069 5051 5034 5017 5002 4988 4977 4970 4966 4962 4963 4966 4970 4977 4989 5002 5009 5018 5026 5033 5039 5044 5049 5054 5058 5063 5067
5381 5374 5368 5360 5351 5341 5332 5321 5311 5302 5293 5282 5269 5257 5246 5235 5225 5214 5203 5190 5174 5161 5148 5134 5117 5100 5081 5065 5052 5037 5021 5006 4992 4982 4973 4966 4962 4961 4963 4967 4975 4986 4996 5005 5013 5022 5030 5037 5043 5046 5051 5055 5060 5065
5382 5374 5367 5357 5348 5339 5330 5320 5311 5302 5292 5281 5269 5258 5247 5236 5226 5215 5202 5190 5177 5162 5147 5132 5118 5104 5090 5074 5057 5042 5028 5014 5001 4990 4982 4974 4969 4968 4968 4971 4978 4987 4996 5005 5014 5022 5029 5034 5039 5045 5050 5056 5060 5065
5381 5374 5366 5356 5348 5339 5331 5321 5312 5303 5293 5281 5269 5258 5247 5237 5228 5216 5202 5189 5176 5162 5149 5136 5124 5111 5098 5085 5070 5055 5041 5028 5013 5004 4999 4990 4985 4984 4984 4987 4991 4998 5005 5012 5018 5024 5031 5037 5043 5048 5053 5057 5062 5066
5382 5374 5365 5357 5349 5340 5332 5322 5313 5305 5293 5281 5270 5258 5247 5239 5230 5219 5207 5195 5181 5169 5156 5142 5130 5118 5104 5091 5078 5066 5055 5043 5035 5031 5024 5008 5008 5006 5007 5008 5011 5014 5019 5023 5028 5034 5039 5044 5048 5053 5057 5061 5065 5069
5382 5374 5367 5359 5351 5342 5332 5323 5314 5304 5292 5281 5271 5260 5250 5241 5230 5219 5208 5195 5183 5172 5161 5149 5137 5125 5114 5103 5092 5083 5074 5064 5056 5049 5043 5035 5034 5030 5029 5029 5030 5032 5035 5038 5041 5045 5049 5053 5056 5060 5063 5067 5071 5074